Temp
-2 -3 -3 -3 -3 -3 -4 -3 -4 -3 -1 -0 1 0 -0 -0 0 0 0 1 1 0 -0 -0 -1 -1 -1 -1 -1 -0 0 1 0 1 1 1 2 2 2 2 2 2 2 2
-4 -3 -3 -3 -3 -3 -3 -3 -3 -3 -2 1 0 -1 -1 -1 -0 0 -0 -0 0 -0 -1 -1 -1 -1 -1 -1 -1 -1 -0 0 0 0 0 0 1 1 1 2 2 1 1 1
-4 -4 -4 -5 -3 -2 -1 -1 -1 -2 1 -0 0 -0 -0 -1 -0 1 0 -0 -0 -1 -1 -1 -1 -1 -1 -1 -1 -1 -0 -0 0 0 -0 -0 -0 0 1 1 1 1 1 1
-4 -4 -6 -3 -2 -2 -2 -1 -1 -2 0 -0 -0 0 -1 -1 -1 -0 0 -0 -1 -1 -1 -1 -1 -1 -1 -1 -1 -1 -1 -1 -1 -1 -1 -1 -1 -0 0 1 1 1 0 0
-5 -6 -4 -2 -2 -2 -2 -0 -1 -1 -0 -1 -0 -0 2 1 -0 -1 -1 -1 -1 -2 -2 -2 -1 -1 -1 -1 -1 -1 -1 -1 -1 -1 -1 -1 -1 -1 -0 0 0 -0 -0 -1
-5 -5 -6 -3 -3 -3 -3 -1 -2 -2 -1 -1 -1 0 2 -0 0 -0 -1 -1 -1 -2 -2 -2 -2 -2 -2 -2 -1 -1 -1 -1 -1 -1 -2 -2 -1 -1 -1 -1 -1 -1 -1 -1
-5 -5 -4 -3 -2 -2 -3 -2 -2 -2 -2 -1 -1 -1 -0 -0 -0 -0 -1 -1 -1 -2 -2 -2 -2 -2 -2 -2 -1 -1 -1 -1 -1 -1 -2 -2 -2 -2 -1 -1 -1 -2 -2 -2
-5 -5 -5 -3 -3 -3 -3 -3 -3 -3 -2 -2 -1 -1 -1 -1 -1 -2 -2 -1 -2 -2 -2 -3 -3 -3 -2 -2 -1 -1 -1 -1 -1 -2 -2 -3 -3 -2 -2 -2 -2 -2 -2 -2
-3 -3 -3 -3 -3 -3 -3 -3 -3 -3 -3 -3 -2 -2 -2 -2 -2 -2 -2 -2 -2 -2 -3 -3 -3 -3 -3 -2 -2 -1 -1 -2 -2 -2 -2 -2 -2 -2 -3 -3 -3 -3 -3 -3
-4 -3 -3 -3 -3 -3 -3 -3 -3 -4 -4 -4 -3 -3 -3 -3 -3 -3 -3 -3 -2 -3 -3 -3 -3 -3 -3 -3 -2 -2 -2 -1 -1 -2 -2 -2 -3 -3 -3 -3 -3 -3 -3 -3
-4 -3 -3 -3 -3 -4 -4 -3 -3 -3 -3 -4 -4 -3 -3 -3 -3 -3 -3 -3 -3 -3 -3 -3 -3 -4 -4 -3 -3 -2 -2 -2 -1 -2 -2 -2 -3 -3 -3 -3 -3 -3 -3 -3
-5 -4 -4 -4 -4 -4 -4 -3 -3 -4 -4 -4 -4 -4 -4 -4 -3 -3 -3 -3 -3 -3 -3 -3 -3 -3 -3 -3 -3 -3 -2 -2 -2 -2 -2 -2 -3 -3 -3 -3 -3 -3 -3 -3
-4 -5 -5 -4 -4 -4 -4 -4 -4 -4 -4 -4 -4 -4 -4 -4 -4 -4 -4 -4 -3 -3 -3 -3 -3 -3 -3 -3 -3 -3 -3 -3 -3 -3 -3 -3 -3 -3 -3 -3 -3 -4 -4 -4
-5 -5 -5 -4 -4 -4 -4 -4 -4 -4 -4 -4 -4 -4 -4 -4 -4 -4 -4 -4 -4 -3 -3 -3 -3 -3 -3 -3 -4 -3 -3 -3 -4 -4 -4 -4 -4 -4 -3 -4 -4 -4 -4 -4
-5 -5 -5 -5 -4 -5 -4 -4 -4 -5 -5 -5 -5 -4 -4 -4 -4 -4 -4 -4 -4 -4 -4 -4 -4 -4 -4 -3 -3 -4 -4 -4 -4 -4 -4 -4 -4 -4 -4 -4 -4 -4 -4 -4
-5 -5 -5 -5 -4 -5 -5 -5 -5 -4 -5 -5 -5 -4 -4 -4 -4 -4 -4 -4 -4 -4 -4 -4 -5 -4 -4 -4 -4 -4 -4 -4 -4 -4 -5 -5 -5 -4 -5 -5 -5 -5 -5 -5
-6 -5 -5 -5 -5 -5 -5 -5 -5 -5 -5 -5 -5 -5 -4 -4 -4 -4 -4 -4 -4 -4 -4 -4 -5 -5 -4 -4 -4 -4 -4 -4 -4 -4 -4 -4 -4 -5 -5 -5 -5 -5 -6 -7
-6 -5 -5 -5 -5 -5 -5 -5 -5 -5 -5 -5 -5 -5 -5 -4 -3 -3 -3 -4 -4 -4 -4 -4 -4 -5 -6 -5 -5 -5 -5 -4 -5 -5 -4 -5 -5 -5 -5 -5 -5 -5 -5 -5
-5 -5 -5 -5 -6 -6 -5 -5 -5 -5 -6 -6 -6 -7 -7 -6 -5 -5 -5 -5 -5 -5 -5 -5 -5 -5 -5 -5 -5 -5 -5 -5 -5 -5 -5 -5 -5 -5 -5 -5 -5 -5 -5 -5
-5 -5 -5 -6 -5 -5 -5 -5 -5 -5 -6 -6 -6 -7 -6 -6 -6 -6 -6 -6 -6 -6 -5 -5 -5 -5 -5 -5 -5 -5 -5 -6 -6 -6 -6 -5 -5 -5 -5 -5 -5 -5 -5 -5
-5 -6 -6 -6 -6 -6 -6 -6 -6 -6 -6 -6 -6 -6 -6 -6 -6 -6 -6 -6 -6 -6 -6 -6 -6 -5 -5 -5 -5 -5 -6 -6 -6 -6 -6 -6 -6 -5 -5 -5 -5 -5 -5 -5
-6 -6 -6 -6 -6 -6 -6 -6 -6 -6 -6 -6 -6 -6 -6 -6 -6 -6 -6 -6 -6 -6 -6 -6 -6 -6 -6 -6 -6 -6 -6 -6 -6 -6 -6 -6 -5 -5 -5 -5 -5 -5 -5 -5
-6 -6 -7 -6 -6 -6 -6 -6 -6 -6 -6 -6 -6 -6 -6 -6 -6 -6 -6 -6 -6 -6 -6 -7 -7 -5 -5 -6 -6 -6 -6 -6 -6 -6 -6 -6 -6 -6 -6 -5 -5 -5 -5 -5
-7 -7 -7 -7 -7 -7 -7 -7 -6 -6 -6 -6 -6 -6 -6 -6 -6 -6 -6 -6 -6 -6 -6 -6 -5 -6 -6 -6 -6 -6 -6 -6 -6 -6 -6 -6 -6 -6 -6 -6 -6 -6 -6 -6
-7 -8 -8 -8 -7 -7 -7 -7 -7 -7 -7 -7 -7 -7 -7 -7 -7 -7 -7 -7 -6 -6 -6 -6 -6 -6 -6 -6 -6 -6 -6 -6 -5 -5 -5 -5 -5 -5 -5 -5 -5 -5 -5 -5
-8 -8 -8 -8 -8 -8 -8 -8 -8 -8 -8 -7 -7 -7 -7 -7 -7 -7 -7 -7 -7 -7 -7 -7 -6 -6 -6 -6 -6 -6 -6 -6 -6 -5 -5 -5 -5 -5 -5 -5 -5 -5 -5 -6
-8 -8 -8 -8 -8 -8 -8 -8 -8 -8 -8 -8 -8 -8 -8 -7 -7 -7 -7 -7 -7 -7 -7 -7 -7 -7 -7 -6 -6 -6 -6 -6 -6 -6 -6 -6 -6 -6 -6 -6 -6 -6 -6 -6
Height
3050 3050 3051 3053 3055 3056 3056 3058 3057 3051 3048 3054 3056 3058 3058 3062 3064 3065 3067 3068 3069 3070 3072 3074 3076 3077 3079 3079 3079 3079 3078 3077 3077 3076 3075 3075 3075 3075 3075 3076 3076 3076 3075 3075
3045 3047 3048 3047 3049 3050 3050 3050 3048 3048 3041 3048 3048 3048 3049 3054 3056 3057 3059 3061 3063 3064 3066 3068 3071 3072 3073 3074 3073 3072 3071 3069 3069 3068 3067 3067 3067 3067 3068 3069 3070 3070 3069 3069
3042 3044 3045 3042 3041 3041 3040 3040 3041 3040 3039 3043 3041 3043 3044 3045 3046 3047 3051 3053 3056 3059 3062 3064 3066 3067 3067 3066 3067 3064 3063 3062 3061 3061 3061 3060 3061 3060 3062 3063 3064 3064 3064 3064
3039 3042 3040 3034 3032 3033 3032 3032 3033 3032 3033 3034 3033 3033 3034 3038 3039 3042 3044 3046 3050 3054 3057 3059 3060 3061 3061 3061 3059 3058 3057 3056 3055 3055 3055 3054 3055 3055 3056 3057 3058 3058 3059 3059
3035 3035 3031 3029 3029 3029 3029 3026 3027 3027 3028 3027 3026 3025 3027 3030 3032 3036 3040 3043 3045 3049 3051 3053 3055 3055 3055 3054 3053 3052 3050 3049 3049 3049 3048 3048 3049 3050 3050 3052 3053 3053 3054 3054
3030 3030 3029 3026 3024 3024 3024 3023 3022 3022 3022 3022 3021 3020 3023 3023 3026 3030 3035 3038 3040 3043 3046 3048 3049 3049 3048 3047 3046 3045 3043 3042 3042 3041 3041 3041 3043 3044 3045 3046 3047 3049 3049 3051
3024 3024 3021 3022 3024 3024 3025 3027 3020 3021 3020 3019 3017 3017 3017 3018 3020 3024 3027 3031 3035 3039 3041 3042 3043 3043 3042 3041 3040 3038 3037 3036 3035 3035 3035 3034 3036 3038 3040 3041 3043 3044 3046 3048
3021 3022 3020 3016 3019 3020 3020 3018 3018 3018 3017 3015 3014 3013 3013 3015 3017 3020 3023 3027 3031 3034 3036 3037 3037 3037 3036 3036 3034 3033 3031 3030 3030 3029 3029 3029 3031 3033 3035 3037 3039 3041 3043 3046
3014 3012 3012 3013 3014 3015 3015 3016 3016 3016 3015 3013 3012 3011 3012 3013 3015 3018 3021 3024 3027 3030 3031 3032 3032 3032 3031 3030 3029 3028 3027 3026 3025 3025 3026 3026 3027 3029 3031 3035 3037 3039 3041 3043
3009 3009 3009 3010 3012 3013 3013 3014 3014 3014 3014 3013 3013 3012 3013 3014 3015 3017 3019 3021 3023 3025 3027 3028 3028 3027 3027 3026 3024 3024 3023 3022 3021 3021 3022 3023 3024 3027 3030 3032 3034 3036 3038 3039
3004 3006 3007 3008 3009 3010 3010 3010 3011 3012 3012 3012 3012 3012 3012 3013 3014 3015 3017 3018 3019 3021 3021 3021 3024 3023 3023 3023 3021 3020 3021 3020 3019 3019 3020 3021 3023 3025 3027 3029 3031 3032 3033 3035
2998 3003 3005 3006 3005 3005 3007 3007 3008 3009 3009 3010 3010 3010 3011 3011 3012 3012 3013 3013 3015 3016 3016 3017 3018 3019 3019 3019 3018 3018 3018 3017 3017 3018 3019 3020 3021 3023 3024 3026 3027 3027 3029 3030
2994 2998 3000 3003 3003 3003 3003 3004 3004 3006 3007 3007 3008 3009 3009 3009 3009 3009 3009 3009 3010 3011 3011 3011 3013 3013 3014 3014 3014 3013 3014 3014 3014 3015 3016 3017 3018 3019 3019 3020 3022 3023 3024 3024
2988 2992 2996 2999 2999 2999 3000 3000 3001 3002 3003 3004 3005 3006 3006 3006 3006 3005 3005 3005 3005 3006 3006 3006 3007 3008 3008 3008 3009 3009 3009 3009 3010 3011 3012 3012 3013 3014 3014 3015 3016 3018 3018 3018
2984 2987 2991 2994 2995 2995 2995 2996 2997 2998 2999 3000 3001 3001 3001 3001 3001 3001 3001 3001 3001 3001 3001 3001 3002 3002 3002 3003 3003 3004 3005 3005 3005 3006 3006 3006 3007 3008 3009 3009 3010 3011 3011 3012
2979 2983 2985 2990 2991 2991 2991 2992 2993 2994 2995 2995 2996 2996 2995 2995 2994 2994 2994 2995 2995 2995 2995 2995 2995 2995 2996 2997 2997 2998 2999 2999 3000 3000 3001 3001 3001 3001 3002 3002 3003 3003 3003 3004
2974 2979 2981 2984 2986 2987 2988 2988 2989 2989 2990 2990 2990 2990 2989 2988 2987 2987 2987 2987 2987 2987 2987 2987 2987 2987 2989 2990 2990 2991 2991 2992 2992 2994 2994 2994 2995 2995 2994 2994 2994 2994 2995 2995
2973 2975 2977 2979 2982 2983 2984 2985 2985 2984 2984 2983 2983 2982 2981 2979 2978 2978 2977 2978 2979 2979 2979 2979 2979 2980 2981 2982 2983 2983 2984 2984 2984 2985 2985 2986 2986 2986 2985 2986 2986 2986 2986 2984
2970 2972 2974 2975 2977 2978 2979 2979 2979 2978 2977 2977 2976 2975 2974 2972 2971 2970 2970 2970 2970 2970 2970 2970 2971 2971 2972 2973 2974 2975 2976 2976 2977 2977 2977 2977 2977 2977 2977 2977 2977 2977 2977 2976
2968 2969 2969 2970 2971 2972 2972 2972 2971 2971 2971 2971 2970 2969 2968 2967 2966 2966 2965 2964 2963 2962 2961 2960 2961 2962 2963 2964 2965 2967 2967 2967 2968 2968 2968 2968 2967 2967 2967 2967 2967 2967 2966 2965
2964 2964 2964 2964 2965 2965 2966 2966 2966 2966 2967 2966 2966 2966 2965 2965 2964 2963 2962 2961 2959 2958 2956 2954 2953 2953 2955 2955 2956 2958 2958 2958 2958 2959 2958 2958 2958 2958 2958 2957 2956 2955 2954 2954
2961 2960 2960 2960 2961 2962 2963 2964 2965 2965 2965 2965 2964 2963 2962 2961 2960 2959 2956 2955 2953 2952 2952 2950 2950 2948 2948 2948 2948 2949 2949 2949 2949 2949 2949 2948 2948 2947 2947 2947 2946 2945 2943 2943
2960 2961 2962 2962 2962 2963 2963 2963 2963 2963 2962 2961 2960 2959 2958 2956 2954 2953 2951 2949 2948 2947 2945 2945 2944 2943 2942 2942 2942 2941 2941 2940 2940 2940 2939 2939 2939 2938 2937 2936 2935 2934 2933 2932
2960 2961 2961 2962 2962 2962 2961 2961 2960 2959 2958 2957 2956 2954 2953 2952 2950 2948 2946 2944 2943 2941 2940 2939 2938 2937 2936 2935 2934 2934 2934 2933 2933 2932 2931 2930 2930 2929 2928 2927 2926 2925 2924 2923
2960 2960 2960 2961 2960 2959 2958 2957 2956 2955 2954 2953 2952 2951 2949 2947 2945 2943 2942 2940 2939 2937 2936 2934 2933 2932 2931 2929 2928 2927 2926 2925 2924 2923 2923 2922 2921 2920 2919 2917 2916 2914 2913 2912
2960 2959 2959 2958 2958 2957 2955 2954 2952 2950 2950 2949 2948 2947 2945 2944 2942 2940 2938 2936 2935 2933 2932 2930 2929 2927 2925 2924 2923 2921 2920 2919 2917 2916 2915 2914 2912 2911 2910 2908 2907 2905 2903 2902
2956 2956 2955 2955 2953 2953 2951 2950 2948 2947 2946 2945 2944 2943 2942 2940 2939 2937 2935 2933 2931 2929 2927 2925 2924 2922 2920 2918 2916 2915 2913 2912 2911 2909 2908 2906 2904 2903 2901 2899 2898 2896 2894 2892
Wind_Speed
16 10 10 12 14 15 36 40 30 33 39 38 36 33 31 29 27 27 15 13 13 16 16 18 18 17 19 20 21 23 25 26 27 27 27 28 28 27 26 25 23 21 20 20
14 16 17 21 21 21 24 26 34 37 42 27 27 28 29 24 28 27 22 23 20 18 18 16 15 16 18 20 22 23 24 24 25 26 26 24 25 23 22 20 19 19 19 18
7 13 16 17 29 30 32 32 33 39 31 29 27 23 14 12 16 21 18 19 21 18 16 16 16 18 19 22 23 23 23 22 23 23 23 22 21 19 18 18 17 17 15 14
7 8 5 11 16 14 18 22 26 29 25 21 19 20 24 19 17 17 16 18 20 17 17 18 18 19 21 22 22 23 23 23 23 22 21 21 20 18 18 17 16 14 14 13
6 10 16 20 15 16 17 24 20 21 19 19 19 19 20 24 24 22 19 17 19 18 19 19 18 19 20 20 21 23 23 23 24 24 22 21 20 18 17 16 15 14 14 13
11 5 5 1 4 4 7 15 7 8 11 11 15 20 15 16 24 22 23 23 25 23 18 18 18 19 19 20 21 21 22 22 22 22 22 21 21 20 18 16 16 15 13 12
22 11 10 18 18 19 10 7 7 7 10 12 14 15 15 15 17 22 23 27 24 23 20 19 20 20 20 20 20 19 19 19 19 19 19 21 21 20 18 16 15 14 13 13
24 13 13 20 16 18 12 12 11 9 10 11 11 11 10 14 13 15 16 21 22 21 19 17 18 19 19 18 16 16 16 16 16 17 17 16 17 16 15 14 14 14 14 13
14 9 9 7 7 5 9 8 10 9 7 10 7 3 9 9 11 16 15 16 18 18 17 15 16 13 14 14 12 13 13 13 13 12 12 12 13 14 14 15 15 14 14 13
16 14 13 13 9 10 5 7 5 6 6 5 6 1 4 8 9 12 14 16 17 20 16 15 16 16 11 10 10 10 11 10 10 10 11 11 11 13 14 14 15 15 14 13
23 18 14 12 7 11 13 12 12 11 9 9 7 4 2 4 9 11 14 17 21 18 21 18 15 13 12 10 9 9 10 9 7 6 8 10 12 13 14 14 15 16 15 15
19 14 11 5 9 12 14 12 10 7 8 7 6 6 5 5 6 8 10 11 16 20 19 20 19 16 14 14 11 10 11 10 10 9 9 11 13 14 15 16 17 17 18 18
23 14 14 13 10 10 10 10 14 12 9 9 8 8 8 8 9 10 11 12 14 12 14 22 23 21 17 17 16 14 13 12 12 12 13 14 15 15 17 18 18 20 20 20
22 17 15 14 13 11 11 10 8 10 10 11 11 12 12 13 13 13 14 14 13 15 15 15 16 16 16 16 15 15 15 15 14 14 15 16 17 18 19 19 20 22 22 22
18 18 15 15 13 10 10 10 17 16 16 16 17 19 19 16 16 17 16 16 16 17 17 18 19 19 19 17 16 17 16 13 14 16 18 19 19 20 20 21 22 23 24 24
17 21 15 14 13 10 11 11 10 13 16 18 19 20 21 20 20 20 21 22 22 21 20 22 23 23 22 22 22 20 20 20 20 19 17 15 15 18 21 23 24 25 25 25
11 16 18 15 14 14 12 11 11 13 14 17 19 22 24 25 25 25 24 23 23 24 25 25 23 26 24 23 22 20 22 24 25 25 24 25 20 24 23 24 23 26 27 29
15 20 22 17 16 16 14 14 16 17 20 24 25 24 25 26 26 26 26 26 24 23 25 27 26 25 25 25 25 23 23 25 24 23 27 26 25 24 23 23 23 25 26 29
12 12 14 15 16 18 20 22 23 25 23 20 21 22 24 23 18 17 18 20 22 25 27 27 27 29 28 28 28 27 25 24 24 24 25 24 28 29 33 31 29 28 30 32
14 16 18 21 25 27 26 25 23 20 18 18 17 13 11 10 10 12 14 14 16 19 25 30 30 29 29 30 31 31 30 29 30 30 28 29 26 27 32 30 32 35 36 34
12 15 17 17 16 15 14 12 11 9 7 4 2 2 4 6 8 10 12 13 14 15 15 16 17 22 23 25 26 26 26 27 28 30 30 31 32 30 29 29 30 33 34 34
6 4 4 4 4 4 4 4 2 2 4 6 9 11 13 15 16 17 19 20 20 18 19 16 17 16 17 20 22 24 25 26 27 28 29 29 29 29 29 29 29 29 30 31
9 8 7 5 3 1 2 4 6 9 11 13 15 16 17 17 17 18 17 16 17 18 18 20 20 20 20 20 19 19 20 22 23 24 24 25 26 27 27 27 27 26 26 26
6 4 1 2 3 5 7 8 10 11 12 13 14 15 15 15 15 15 15 15 16 16 15 15 19 19 18 19 21 22 23 23 22 22 22 22 23 23 23 24 25 25 26 27
1 1 1 4 7 9 10 11 12 12 11 11 11 12 13 14 14 15 15 15 15 15 14 14 14 14 15 15 16 17 19 20 21 22 24 25 26 27 28 29 30 31 32 32
5 5 7 9 10 11 12 12 11 10 10 10 11 12 14 15 15 14 14 15 15 15 15 16 16 16 16 16 16 17 18 19 19 20 21 22 23 24 25 26 27 28 28 28
12 13 13 13 14 13 14 12 11 11 11 11 13 14 15 15 15 15 15 15 16 16 17 17 17 18 18 18 19 19 20 20 21 22 23 23 24 25 26 26 27 27 28 28
Wind_Direction
220 217 238 256 262 247 232 236 235 260 263 272 274 274 263 253 264 283 277 256 263 233 232 241 242 244 252 260 265 268 270 271 273 270 269 267 266 265 265 265 266 266 268 269
239 244 256 264 261 257 254 254 255 263 271 280 285 279 265 257 255 259 275 254 258 240 238 236 236 248 257 266 271 274 275 276 276 275 270 265 261 259 259 258 258 264 267 265
247 250 258 260 259 254 256 259 262 256 276 293 285 281 281 257 261 249 257 233 224 231 232 231 248 263 270 275 279 279 276 278 277 275 269 261 257 253 252 253 260 265 264 257
240 238 243 255 254 257 259 264 262 268 278 288 291 268 255 248 244 238 243 216 206 212 225 241 253 270 272 277 277 275 273 275 276 272 267 258 253 252 252 257 260 259 256 248
212 215 269 268 267 269 272 280 277 278 282 279 271 267 249 237 231 230 225 218 204 216 233 243 263 270 275 277 278 275 275 276 273 269 265 256 252 253 253 256 256 253 249 244
203 205 230 222 249 285 301 294 278 274 275 288 276 267 273 261 238 232 223 219 212 222 237 252 267 273 276 279 280 278 276 276 274 268 263 257 249 248 249 249 250 247 235 214
231 236 255 257 264 275 265 266 280 283 291 294 288 273 269 245 220 220 224 216 223 229 243 255 267 269 276 280 282 281 281 277 273 268 266 253 246 244 244 244 239 221 206 198
225 235 266 262 253 241 263 260 271 291 307 312 298 267 241 202 208 206 210 212 218 230 246 251 263 270 273 277 280 284 286 281 276 266 266 252 238 236 236 226 212 204 203 208
210 229 235 244 255 278 257 253 277 281 300 318 337 253 191 190 194 197 198 201 219 235 233 257 259 277 275 279 279 286 290 284 273 263 257 242 228 224 212 207 207 210 217 224
236 262 269 254 257 257 246 289 278 280 295 317 345 326 209 204 205 210 216 225 223 230 234 257 261 266 270 288 279 283 289 292 280 260 248 236 220 205 208 214 217 223 229 235
240 253 271 277 266 266 258 267 265 280 270 265 282 296 280 248 247 247 245 240 229 226 242 244 267 273 257 277 292 281 281 281 275 253 233 218 210 217 225 228 230 235 240 245
233 254 288 291 257 257 253 266 251 260 271 266 262 262 265 265 264 263 250 251 251 249 255 249 248 256 264 272 283 282 272 265 260 249 236 230 232 236 238 239 241 243 245 248
229 232 253 267 270 266 257 255 241 252 256 249 250 255 269 278 272 268 260 259 253 264 261 256 253 258 264 268 273 269 262 262 258 253 249 246 244 243 243 247 250 251 249 251
223 228 242 251 264 264 255 238 237 241 246 248 253 262 275 278 273 268 267 271 271 261 265 263 260 257 259 262 264 266 266 262 259 257 257 258 258 255 255 255 253 255 257 257
214 216 233 239 247 261 257 253 236 242 252 260 263 271 276 275 274 266 265 267 270 267 262 257 255 258 261 263 260 258 265 271 267 265 260 257 258 261 263 262 261 260 262 264
227 211 205 229 237 259 251 246 251 254 258 265 271 273 275 274 272 269 265 265 269 271 268 260 256 260 261 264 265 264 262 268 271 272 279 280 273 270 270 266 261 263 265 267
219 190 208 229 253 254 242 245 253 263 269 273 278 280 280 278 276 273 270 268 266 265 266 267 260 255 260 260 265 263 257 261 259 260 273 272 274 274 280 270 274 268 258 257
230 225 224 238 258 247 251 267 271 271 276 278 278 280 283 283 282 281 276 270 269 268 264 263 264 258 253 258 262 264 267 264 265 265 266 263 268 269 279 275 278 274 272 272
214 221 229 235 245 255 264 270 275 280 284 285 284 286 285 287 289 284 280 274 269 267 266 263 261 262 261 260 262 264 266 266 263 268 267 270 272 273 269 269 272 275 280 278
230 234 240 248 258 267 269 271 275 278 279 278 282 286 298 306 312 313 313 309 298 285 272 262 260 259 259 260 262 263 265 266 266 266 269 268 274 271 270 275 272 272 275 278
262 257 258 261 262 265 268 268 268 267 267 264 268 300 306 300 296 292 291 295 299 301 312 302 275 260 263 262 262 264 267 268 268 269 270 267 273 274 275 277 277 275 274 277
253 250 228 208 189 176 166 160 163 220 276 291 293 293 293 294 291 291 292 290 287 287 294 297 296 285 270 265 265 266 267 266 268 270 272 273 276 276 274 276 279 280 279 279
141 124 116 117 127 176 257 272 280 285 287 289 291 292 294 297 299 299 299 299 296 287 279 290 294 286 274 273 279 279 275 273 272 274 277 277 277 277 277 278 278 278 278 278
167 150 111 359 342 330 317 308 300 296 294 295 296 297 298 298 297 304 309 309 306 302 293 277 278 283 283 279 274 270 275 276 278 279 279 279 279 278 277 276 276 274 273 275
314 344 358 328 323 323 319 313 306 292 294 299 304 307 309 312 313 312 310 309 309 308 305 301 296 294 292 291 288 284 281 280 280 280 279 279 279 279 278 279 279 279 279 281
317 316 311 316 316 321 321 321 318 309 298 300 307 313 316 318 316 313 311 311 310 308 307 305 303 301 299 297 294 293 291 290 288 287 286 285 284 284 284 284 284 285 286 286
298 301 302 306 305 316 316 316 316 312 306 301 304 309 312 315 315 315 316 316 316 315 313 311 308 306 304 302 300 297 295 293 291 289 287 286 286 285 285 285 285 285 286 287